1528455600.58,36450,22.19,74300.3,6.37,5.63,5.33,0,*7E
1528455601.84,36451,22.19,74300.0,6.39,5.73,5.55,0,*70
1528455603.06,36452,22.19,74300.8,6.37,5.77,5.55,0,*79
1528455604.23,36453,22.19,74300.8,6.37,5.71,5.49,0,*73
1528455605.44,36454,22.13,74298.3,6.35,5.63,5.29,0,*73
1528455606.66,36455,22.19,74302.5,6.35,5.55,5.29,0,*77
1528455607.84,36456,22.19,74302.8,6.37,5.45,5.19,0,*74
1528455609.06,36457,22.19,74300.0,6.39,5.55,5.37,0,*76
1528455610.25,36458,22.19,74300.8,6.37,5.77,5.63,0,*76
1528455611.46,36459,22.19,74302.5,6.39,5.71,5.59,0,*76
1528455612.67,36460,22.19,74302.8,6.37,5.67,5.51,0,*7D
1528455613.89,36461,22.19,74302.3,6.37,5.55,5.27,0,*7C
1528455615.12,36462,22.19,74300.8,6.39,5.71,5.55,0,*72
1528455616.32,36463,22.19,74302.3,6.37,5.81,5.63,0,*77
1528455617.55,36464,22.13,74296.8,6.39,5.81,5.59,0,*77
1528455618.78,36465,22.19,74302.8,6.39,5.95,5.73,0,*7B
1528455620.02,36466,22.19,74302.8,6.39,6.03,5.81,0,*79
1528455621.26,36467,22.19,74302.5,6.39,5.93,5.71,0,*7D
1528455622.48,36468,22.19,74304.5,6.39,6.07,5.85,0,*77
1528455623.69,36469,22.19,74302.5,6.41,6.07,5.85,0,*79
1528455624.89,36470,22.19,74302.3,6.39,5.71,5.49,0,*7C
1528455626.09,36471,22.13,74302.3,6.41,5.51,5.29,0,*76
1528455627.27,36472,22.13,74302.3,6.41,5.71,5.59,0,*70
1528455628.47,36473,22.19,74302.0,6.41,5.85,5.71,0,*70
1528455629.68,36474,22.19,74300.8,6.43,5.95,5.71,0,*74
1528455630.91,36475,22.19,74302.5,6.43,6.11,5.89,0,*7D
1528455632.11,36476,22.19,74302.8,6.41,6.17,5.95,0,*77
1528455633.34,36477,22.19,74300.8,6.43,6.07,5.89,0,*78
1528455634.57,36478,22.19,74302.0,6.43,6.11,5.89,0,*70
1528455635.82,36479,22.19,74302.5,6.43,6.17,5.85,0,*7B
1528455637.05,36480,22.19,74304.0,6.43,6.11,5.85,0,*7B
1528455638.28,36481,22.13,74300.0,6.43,6.07,5.85,0,*7D
1528455639.5,36482,22.19,74302.5,6.43,5.99,5.73,0,*73
1528455640.73,36483,22.19,74300.0,6.45,6.13,5.81,0,*78
1528455641.96,36484,22.19,74302.3,6.47,5.99,5.73,0,*71
1528455643.18,36485,22.19,74306.3,6.45,5.89,5.73,0,*73
1528455644.42,36486,22.19,74302.8,6.47,6.03,5.77,0,*77
1528455645.62,36487,22.13,74302.0,6.45,6.03,5.77,0,*74
1528455646.85,36488,22.19,74304.8,6.47,6.11,5.77,0,*7A
1528455648.08,36489,22.13,74300.3,6.47,6.03,5.77,0,*78
1528455649.3,36490,22.19,74302.5,6.47,5.77,5.45,0,*71
1528455650.52,36491,22.13,74302.5,6.47,5.73,5.45,0,*74
1528455651.72,36492,22.19,74304.8,6.47,5.63,5.45,0,*76
1528455652.95,36493,22.19,74304.3,6.47,5.81,5.63,0,*7F
1528455654.2,36494,22.13,74300.3,6.47,5.81,5.55,0,*7D
1528455655.45,36495,22.19,74304.3,6.47,5.81,5.73,0,*78
1528455656.66,36496,22.13,74300.5,6.47,5.99,5.67,0,*77
1528455657.9,36497,22.13,74302.0,6.47,5.93,5.67,0,*7C
1528455659.13,36498,22.13,74302.0,6.47,6.03,5.81,0,*71
1528455660.36,36499,22.13,74300.5,6.49,6.17,5.85,0,*7F
1528455661.59,36500,22.19,74304.3,6.49,6.13,5.81,0,*7E
1528455662.83,36501,22.13,74302.5,6.51,6.11,5.85,0,*70
1528455664.03,36502,22.13,74302.5,6.49,5.85,5.71,0,*7F
1528455665.24,36503,22.19,74306.0,6.49,5.81,5.67,0,*7D
1528455666.47,36504,22.19,74304.8,6.53,5.99,5.73,0,*7D
1528455667.67,36505,22.19,74306.3,6.49,6.03,5.77,0,*73
1528455668.91,36506,22.19,74306.5,6.51,6.21,5.89,0,*78
1528455670.12,36507,22.13,74306.0,6.51,6.29,5.95,0,*7C
1528455671.33,36508,22.13,74302.0,6.53,6.21,5.95,0,*79
1528455672.55,36509,22.19,74306.3,6.53,6.29,5.95,0,*70
1528455673.76,36510,22.13,74304.8,6.53,6.21,5.95,0,*70
1528455675.01,36511,22.13,74300.5,6.53,6.17,5.89,0,*79
1528455676.26,36512,22.13,74302.0,6.53,6.17,5.89,0,*7A
1528455677.5,36513,22.19,74306.0,6.57,6.25,5.89,0,*7E
1528455678.74,36514,22.13,74304.3,6.57,6.03,5.85,0,*71
1528455680.0,36515,22.13,74302.5,6.57,6.13,5.85,0,*71
1528455681.23,36516,22.13,74302.3,6.57,6.11,5.89,0,*7C
1528455682.46,36517,22.13,74300.8,6.57,5.89,5.63,0,*7B
1528455683.7,36518,22.13,74302.8,6.57,5.85,5.63,0,*78
1528455684.93,36519,22.13,74304.8,6.53,5.81,5.59,0,*70
1528455686.18,36520,22.13,74302.3,6.57,5.93,5.73,0,*75
1528455687.42,36521,22.13,74306.8,6.57,6.03,5.77,0,*7A
1528455688.61,36522,22.13,74306.5,6.59,5.99,5.67,0,*76
1528455689.82,36523,22.13,74302.8,6.59,5.95,5.81,0,*73
1528455691.01,36524,22.13,74304.5,6.59,5.95,5.67,0,*7C
1528455692.23,36525,22.13,74306.5,6.59,6.03,5.81,0,*79
1528455693.44,36526,22.13,74304.3,6.59,6.03,5.81,0,*7A
1528455694.66,36527,22.19,74306.8,6.59,5.93,5.59,0,*74
1528455695.9,36528,22.13,74302.3,6.57,5.89,5.67,0,*73
1528455697.11,36529,22.13,74304.3,6.59,5.93,5.71,0,*70
1528455698.35,36530,22.13,74300.3,6.57,6.03,5.73,0,*7E
1528455699.55,36531,22.13,74306.8,6.59,6.07,5.89,0,*70
1528455700.8,36532,22.13,74304.8,6.61,6.39,6.13,0,*75
1528455702.03,36533,22.13,74306.0,6.61,6.39,6.07,0,*71
1528455703.25,36534,22.13,74304.5,6.59,6.35,6.07,0,*71
1528455704.44,36535,22.13,74306.5,6.59,6.29,5.95,0,*75
1528455705.7,36536,22.19,74306.3,6.61,6.13,5.89,0,*79
1528455706.95,36537,22.13,74306.8,6.61,6.17,5.93,0,*77
1528455708.21,36538,22.13,74306.0,6.61,6.13,5.93,0,*7C
1528455709.42,36539,22.13,74304.3,6.61,6.29,6.03,0,*7E
1528455710.64,36540,22.13,74306.8,6.61,6.25,6.03,0,*7C
1528455711.85,36541,22.13,74304.0,6.65,6.29,5.95,0,*79
1528455713.04,36542,22.13,74306.0,6.63,6.33,5.99,0,*7B
1528455714.25,36543,22.13,74302.8,6.65,6.33,6.07,0,*78
1528455715.44,36544,22.13,74306.5,6.63,6.33,5.99,0,*7D
1528455716.65,36545,22.13,74304.0,6.63,6.17,5.95,0,*76
1528455717.88,36546,22.13,74302.3,6.65,6.17,5.95,0,*73
1528455719.11,36547,22.13,74306.5,6.65,6.11,5.81,0,*71
1528455720.34,36548,22.13,74300.5,6.65,6.11,5.81,0,*7E
1528455721.55,36549,22.13,74306.5,6.65,6.21,5.95,0,*79
1528455722.75,36550,22.13,74306.3,6.63,5.95,5.73,0,*73
1528455723.98,36551,22.13,74302.3,6.65,6.11,5.85,0,*72
1528455725.22,36552,22.13,74306.3,6.65,6.21,5.93,0,*75
1528455726.43,36553,22.13,74308.0,6.65,6.29,5.99,0,*76
1528455727.64,36554,22.13,74304.3,6.65,6.33,6.07,0,*7E
1528455728.83,36555,22.13,74306.5,6.67,6.25,5.99,0,*7E
1528455730.04,36556,22.13,74306.0,6.69,6.29,6.03,0,*7F
1528455731.28,36557,22.13,74304.5,6.67,6.13,5.89,0,*78
1528455732.49,36558,22.13,74304.3,6.67,6.11,5.89,0,*75
1528455733.74,36559,22.13,74306.3,6.69,6.13,5.81,0,*70
1528455734.92,36560,22.13,74306.0,6.67,5.67,5.45,0,*7C
1528455736.11,36561,22.13,74304.5,6.67,5.99,5.67,0,*7C
1528455737.33,36562,22.13,74306.3,6.67,6.25,5.89,0,*7B
1528455738.51,36563,22.13,74304.5,6.67,6.11,5.95,0,*70
1528455739.77,36564,22.13,74306.8,6.69,6.13,5.89,0,*76
1528455741.0,36565,22.13,74306.0,6.69,6.25,5.93,0,*79
1528455742.23,36566,22.13,74308.5,6.71,6.39,6.13,0,*75
1528455743.45,36567,22.13,74304.0,6.67,6.53,6.13,0,*7F
1528455744.68,36568,22.13,74304.5,6.71,6.39,6.13,0,*7B
1528455745.91,36569,22.13,74304.3,6.69,6.17,5.99,0,*7E
1528455747.14,36570,22.13,74304.5,6.69,6.25,5.93,0,*7D
1528455748.38,36571,22.13,74306.5,6.69,6.17,5.99,0,*77
1528455749.6,36572,22.13,74304.5,6.69,6.39,6.07,0,*7C
1528455750.83,36573,22.13,74304.5,6.71,6.47,6.17,0,*7C
1528455752.06,36574,22.13,74304.0,6.71,6.47,6.13,0,*7F
1528455753.27,36575,22.13,74306.5,6.73,6.29,6.07,0,*71
1528455754.46,36576,22.13,74304.3,6.71,6.29,6.03,0,*74
1528455755.66,36577,22.13,74304.8,6.79,6.43,6.21,0,*71
1528455756.87,36578,22.13,74306.3,6.73,6.33,6.07,0,*77
1528455758.13,36579,22.13,74308.5,6.73,6.17,5.85,0,*79
1528455759.35,36580,22.13,74306.8,6.73,6.11,5.81,0,*7D
1528455760.56,36581,22.13,74304.8,6.75,6.07,5.85,0,*79
1528455761.81,36582,22.13,74306.8,6.73,6.17,5.93,0,*7A
1528455763.02,36583,22.13,74310.5,6.73,6.21,6.03,0,*74
1528455764.21,36584,22.13,74306.8,6.75,6.29,6.03,0,*7D
1528455765.4,36585,22.13,74306.3,6.75,6.29,6.03,0,*7C
1528455766.61,36586,22.13,74308.0,6.75,6.43,6.11,0,*70
1528455767.82,36587,22.13,74304.0,6.75,6.39,6.11,0,*7C
1528455769.05,36588,22.13,74304.0,6.79,6.43,6.13,0,*70
1528455770.25,36589,22.13,74306.3,6.79,6.35,6.11,0,*72
1528455771.46,36590,22.13,74306.8,6.75,6.43,6.11,0,*77
1528455772.66,36591,22.13,74304.0,6.79,6.53,6.21,0,*78
1528455773.84,36592,22.13,74306.5,6.79,6.33,6.11,0,*7E
1528455775.04,36593,22.13,74304.5,6.79,6.47,6.11,0,*7C
1528455776.29,36594,22.13,74306.8,6.81,6.57,6.17,0,*7B
1528455777.54,36595,22.13,74308.5,6.81,6.47,6.13,0,*7F
1528455778.77,36596,22.13,74304.8,6.81,6.39,6.11,0,*77
1528455780.02,36597,22.13,74306.0,6.81,6.47,6.13,0,*7D
1528455781.25,36598,22.13,74306.5,6.83,6.61,6.35,0,*70
1528455782.5,36599,22.13,74306.8,6.81,6.51,6.13,0,*74
1528455783.74,36600,22.13,74308.5,6.81,6.51,6.25,0,*72
1528455784.97,36601,22.13,74304.3,6.83,6.51,6.17,0,*70
1528455786.23,36602,22.13,74310.0,6.81,6.51,6.13,0,*75
1528455787.44,36603,22.13,74306.3,6.83,6.51,6.25,0,*73
1528455788.65,36604,22.13,74308.8,6.85,6.65,6.33,0,*72
1528455789.86,36605,22.13,74306.8,6.85,6.65,6.33,0,*73
1528455791.09,36606,22.13,74304.5,6.83,6.69,6.35,0,*7C
1528455792.31,36607,22.13,74308.8,6.83,6.57,6.17,0,*70
1528455793.57,36608,22.13,74308.8,6.87,6.39,6.13,0,*77
1528455794.79,36609,22.13,74304.8,6.87,6.53,6.29,0,*73
1528455796.02,36610,22.13,74310.0,6.87,6.61,6.33,0,*71
1528455797.22,36611,22.13,74308.0,6.85,6.61,6.29,0,*79
1528455798.47,36612,22.13,74308.0,6.87,6.53,6.17,0,*74
1528455799.7,36613,22.13,74308.8,6.85,6.39,6.13,0,*7F
1528455800.94,36614,22.13,74308.5,6.87,6.51,6.21,0,*75
1528455802.14,36615,22.13,74306.8,6.89,6.53,6.21,0,*78
1528455803.34,36616,22.13,74304.5,6.89,6.53,6.21,0,*7B
1528455804.57,36617,22.13,74308.0,6.89,6.57,6.17,0,*7B
1528455805.78,36618,22.13,74306.8,6.89,6.43,6.21,0,*74
1528455806.97,36619,22.13,74310.8,6.89,6.33,6.11,0,*71
1528455808.16,36620,22.13,74310.5,6.89,6.33,6.07,0,*7C
1528455809.36,36621,22.13,74310.0,6.89,6.53,6.21,0,*7F
1528455810.59,36622,22.13,74310.3,6.89,6.47,6.17,0,*7C
1528455811.83,36623,22.13,74306.8,6.89,6.47,6.17,0,*7D
1528455813.07,36624,22.13,74308.0,6.91,6.47,6.21,0,*76
1528455814.3,36625,22.13,74310.3,6.91,6.39,6.25,0,*7A
1528455815.53,36626,22.13,74308.8,6.89,6.53,6.17,0,*7D
1528455816.77,36627,22.13,74310.3,6.91,6.51,6.25,0,*76
1528455817.97,36628,22.13,74310.3,6.93,6.57,6.29,0,*71
1528455819.2,36629,22.13,74308.0,6.93,6.73,6.47,0,*7E
1528455820.41,36630,22.13,74306.8,6.93,6.79,6.47,0,*7C
1528455821.61,36631,22.13,74310.8,6.93,6.79,6.47,0,*7D
1528455822.86,36632,22.13,74310.3,6.95,6.87,6.61,0,*7D
1528455824.06,36633,22.13,74308.0,6.93,6.83,6.51,0,*7D
1528455825.28,36634,22.13,74308.8,6.97,6.87,6.53,0,*78
1528455826.51,36635,22.13,74310.3,6.95,6.83,6.51,0,*7D
1528455827.75,36636,22.13,74308.0,6.95,6.87,6.53,0,*78
1528455829.01,36637,22.13,74308.5,6.95,6.73,6.43,0,*73
1528455830.21,36638,22.13,74308.8,6.97,6.75,6.39,0,*75
1528455831.4,36639,22.13,74310.3,6.97,6.61,6.29,0,*70
1528455832.66,36640,22.13,74310.3,6.99,6.69,6.35,0,*75
1528455833.89,36641,22.13,74308.3,6.99,6.57,6.33,0,*7F
1528455835.12,36642,22.13,74308.5,6.99,6.53,6.21,0,*7B
1528455836.32,36643,22.13,74310.8,6.97,6.61,6.33,0,*76
1528455837.53,36644,22.13,74310.3,6.97,6.73,6.33,0,*72
1528455838.73,36645,22.13,74306.5,6.99,6.75,6.33,0,*7B
1528455839.94,36646,22.13,74308.3,6.97,6.65,6.33,0,*77
1528455841.19,36647,22.13,74308.0,6.99,6.91,6.53,0,*75
1528455842.41,36648,22.13,74310.5,6.99,6.79,6.43,0,*7D
1528455843.67,36649,22.13,74314.0,7.03,6.61,6.35,0,*76
1528455844.89,36650,22.13,74308.0,7.05,6.69,6.39,0,*7C
1528455846.14,36651,22.13,74308.5,7.03,6.69,6.39,0,*7B
1528455847.35,36652,22.13,74308.3,7.05,6.83,6.47,0,*73
1528455848.58,36653,22.13,74310.5,7.05,6.73,6.47,0,*7D
1528455849.79,36654,22.13,74308.8,7.05,6.83,6.47,0,*75
1528455851.02,36655,22.13,74310.0,7.05,6.73,6.47,0,*7B
1528455852.25,36656,22.13,74310.5,7.05,6.69,6.35,0,*76
1528455853.51,36657,22.13,74304.8,7.07,6.65,6.35,0,*79
1528455854.77,36658,22.13,74312.8,7.07,6.65,6.35,0,*76
1528455856.0,36659,22.13,74308.8,7.07,6.75,6.43,0,*77
1528455857.23,36660,22.13,74308.5,7.07,6.83,6.43,0,*74
1528455858.49,36661,22.13,74312.3,7.07,6.73,6.39,0,*77
1528455859.68,36662,22.13,74304.5,7.09,6.75,6.39,0,*7C
1528455860.94,36663,22.13,74308.5,7.07,6.87,6.43,0,*73
1528455862.17,36664,22.13,74314.3,7.09,6.73,6.39,0,*7C
1528455863.4,36665,22.13,74308.8,7.09,6.87,6.51,0,*78
1528455864.6,36666,22.13,74308.0,7.09,6.83,6.51,0,*7F
1528455865.8,36667,22.13,74310.5,7.09,6.75,6.39,0,*79
1528455867.03,36668,22.13,74310.3,7.09,6.65,6.39,0,*77
1528455868.22,36669,22.13,74308.3,7.09,6.53,6.29,0,*72
1528455869.48,36670,22.13,74308.8,7.11,6.87,6.47,0,*72
1528455870.73,36671,22.13,74310.3,7.11,6.91,6.53,0,*71
1528455871.92,36672,22.13,74310.5,7.13,6.93,6.57,0,*76
1528455873.15,36673,22.13,74312.0,7.13,6.91,6.51,0,*73
1528455874.34,36674,22.13,74308.8,7.13,6.93,6.57,0,*70
1528455875.55,36675,22.13,74308.3,7.13,6.79,6.51,0,*73
1528455876.75,36676,22.13,74308.8,7.13,6.79,6.47,0,*77
1528455877.98,36677,22.13,74308.3,7.13,6.73,6.43,0,*78
1528455879.21,36678,22.13,74308.5,7.13,6.69,6.43,0,*7C
1528455880.44,36679,22.13,74308.8,7.13,6.73,6.43,0,*76
1528455881.67,36680,22.13,74308.5,7.15,6.83,6.51,0,*7A
1528455882.87,36681,22.13,74310.3,7.17,6.97,6.61,0,*7F
1528455884.07,36682,22.13,74308.5,7.17,6.93,6.53,0,*79
1528455885.3,36683,22.13,74308.8,7.15,6.79,6.43,0,*7F
1528455886.51,36684,22.13,74310.3,7.17,6.75,6.51,0,*75
1528455887.75,36685,22.13,74308.8,7.19,6.87,6.57,0,*71
1528455888.95,36686,22.13,74308.8,7.17,6.93,6.61,0,*7C
1528455890.17,36687,22.13,74308.3,7.19,7.05,6.73,0,*7E
1528455891.39,36688,22.13,74310.5,7.19,6.93,6.61,0,*7C
1528455892.61,36689,22.13,74308.3,7.19,6.75,6.39,0,*78
1528455893.84,36690,22.13,74312.0,7.19,7.05,6.61,0,*7B
1528455895.06,36691,22.13,74308.5,7.19,6.75,6.47,0,*78
1528455896.32,36692,22.13,74308.8,7.19,6.61,6.43,0,*7A
1528455897.58,36693,22.13,74314.3,7.19,6.65,6.35,0,*7E
1528455898.83,36694,22.13,74310.5,7.19,6.73,6.35,0,*7E
1528455900.04,36695,22.13,74308.8,7.21,6.75,6.43,0,*73
1528455901.27,36696,22.13,74310.0,7.21,6.69,6.39,0,*70
1528455902.48,36697,22.13,74314.5,7.21,6.65,6.33,0,*77
1528455903.71,36698,22.13,74312.3,7.21,6.73,6.39,0,*75
1528455904.95,36699,22.13,74310.0,7.21,6.87,6.51,0,*71
1528455906.15,36700,22.13,74308.0,7.21,6.79,6.51,0,*71
1528455907.39,36701,22.13,74314.0,7.21,6.87,6.51,0,*71
1528455908.62,36702,22.13,74308.3,7.21,6.87,6.51,0,*72
1528455909.82,36703,22.13,74308.5,7.25,6.93,6.53,0,*70
1528455911.04,36704,22.13,74308.8,7.25,6.91,6.53,0,*75
1528455912.26,36705,22.13,74308.0,7.25,6.91,6.57,0,*70
1528455913.48,36706,22.13,74312.0,7.25,6.91,6.57,0,*73
1528455914.67,36707,22.13,74308.3,7.25,6.93,6.57,0,*70
1528455915.9,36708,22.13,74308.0,7.27,6.93,6.57,0,*7D
1528455917.12,36709,22.13,74308.0,7.27,6.93,6.57,0,*7C
1528455918.34,36710,22.13,74310.5,7.27,6.83,6.53,0,*71
1528455919.57,36711,22.13,74312.5,7.27,6.79,6.47,0,*70
1528455920.79,36712,22.13,74308.0,7.27,6.83,6.53,0,*73
1528455922.02,36713,22.13,74314.0,7.27,6.79,6.47,0,*72
1528455923.28,36714,22.13,74310.5,7.27,6.73,6.35,0,*7A
1528455924.51,36715,22.13,74310.3,7.27,6.57,6.21,0,*78
1528455925.75,36716,22.13,74312.3,7.29,6.65,6.35,0,*71
1528455926.98,36717,22.13,74310.0,7.31,6.75,6.47,0,*7D
1528455928.19,36718,22.13,74312.5,7.29,6.93,6.51,0,*74
1528455929.39,36719,22.13,74312.3,7.29,6.83,6.51,0,*74
1528455930.62,36720,22.13,74312.3,7.31,6.83,6.51,0,*77
1528455931.82,36721,22.13,74312.3,7.29,6.93,6.57,0,*78
1528455933.02,36722,22.06,74308.8,7.29,6.97,6.57,0,*7F
1528455934.24,36723,22.06,74308.3,7.31,6.97,6.57,0,*77
1528455935.46,36724,22.13,74314.3,7.31,7.05,6.61,0,*7F
1528455936.69,36725,22.13,74312.3,7.33,7.11,6.69,0,*71
1528455937.93,36726,22.13,74312.3,7.35,7.11,6.73,0,*7F
1528455939.16,36727,22.13,74312.3,7.35,7.15,6.75,0,*7C
1528455940.38,36728,22.13,74312.3,7.35,7.15,6.79,0,*7F
1528455941.61,36729,22.13,74312.3,7.35,7.23,6.79,0,*7B
1528455942.84,36730,22.13,74310.5,7.35,7.27,6.83,0,*72
1528455944.06,36731,22.06,74308.0,7.37,7.23,6.73,0,*7A
1528455945.29,36732,22.13,74308.8,7.35,7.23,6.83,0,*74
1528455946.51,36733,22.06,74310.5,7.35,7.05,6.73,0,*7E
1528455947.74,36734,22.13,74314.3,7.37,7.23,6.73,0,*7F
1528455948.94,36735,22.13,74310.8,7.37,7.15,6.79,0,*71
1528455950.14,36736,22.13,74314.8,7.37,7.15,6.79,0,*72
1528455951.37,36737,22.13,74316.0,7.39,7.19,6.75,0,*7D
1528455952.59,36738,22.13,74312.5,7.37,7.11,6.69,0,*79
1528455953.82,36739,22.13,74310.0,7.39,6.75,6.39,0,*70
1528455955.02,36740,22.06,74308.8,7.37,6.57,6.21,0,*79
1528455956.28,36741,22.13,74312.5,7.39,6.69,6.35,0,*7E
1528455957.48,36742,22.06,74310.8,7.37,6.93,6.57,0,*72
1528455958.7,36743,22.13,74314.8,7.39,7.05,6.61,0,*76
1528455959.93,36744,22.13,74314.0,7.39,6.97,6.61,0,*7B
1528455961.16,36745,22.13,74314.8,7.39,6.97,6.61,0,*7A
1528455962.39,36746,22.13,74318.0,7.39,6.75,6.35,0,*74
1528455963.61,36747,22.13,74314.3,7.39,6.75,6.39,0,*79
1528455964.86,36748,22.13,74314.0,7.39,6.87,6.57,0,*73
1528455966.11,36749,22.13,74314.8,7.39,6.87,6.57,0,*72
1528455967.33,36750,22.06,74308.3,7.39,6.97,6.69,0,*76
1528455968.56,36751,22.13,74312.5,7.39,7.09,6.73,0,*7A
1528455969.78,36752,22.13,74312.3,7.43,7.19,6.75,0,*73
1528455970.98,36753,22.13,74312.5,7.41,7.11,6.75,0,*78
1528455972.17,36754,22.06,74312.5,7.41,7.09,6.73,0,*70
1528455973.39,36755,22.13,74314.3,7.43,7.23,6.79,0,*71
1528455974.62,36756,22.06,74310.5,7.43,7.11,6.75,0,*7F
1528455975.83,36757,22.13,74312.5,7.43,7.09,6.73,0,*71
1528455977.06,36758,22.06,74310.8,7.47,7.11,6.75,0,*75
1528455978.28,36759,22.13,74312.5,7.47,7.15,6.75,0,*70
1528455979.5,36760,22.06,74310.8,7.49,7.01,6.69,0,*7C
1528455980.71,36761,22.13,74314.5,7.49,6.75,6.33,0,*70
1528455981.93,36762,22.13,74312.3,7.47,6.69,6.25,0,*77
1528455983.16,36763,22.13,74312.0,7.47,6.75,6.43,0,*7B
1528455984.36,36764,22.13,74312.0,7.49,6.75,6.33,0,*75
1528455985.59,36765,22.06,74308.8,7.47,6.75,6.35,0,*7C
1528455986.82,36766,22.13,74314.8,7.47,6.83,6.47,0,*73
1528455988.04,36767,22.06,74310.5,7.47,7.01,6.65,0,*79
1528455989.26,36768,22.13,74314.0,7.47,6.93,6.57,0,*7D
1528455990.47,36769,22.06,74310.5,7.47,7.01,6.57,0,*76
1528455991.69,36770,22.06,74308.8,7.47,7.01,6.65,0,*7F
1528455992.92,36771,22.13,74312.8,7.49,6.79,6.43,0,*7A
1528455994.16,36772,22.06,74314.3,7.49,6.43,5.99,0,*74
1528455995.39,36773,22.13,74314.8,7.49,6.57,6.11,0,*73
1528455996.62,36774,22.06,74312.8,7.47,6.65,6.21,0,*78
1528455997.84,36775,22.06,74312.3,7.47,6.79,6.43,0,*70
1528455999.07,36776,22.06,74314.0,7.49,6.79,6.43,0,*7D
1528456000.29,36777,22.06,74310.8,7.47,7.01,6.65,0,*78
1528456001.5,36778,22.13,74314.0,7.47,7.01,6.57,0,*76
1528456002.72,36779,22.06,74310.8,7.49,7.01,6.69,0,*74
1528456003.95,36780,22.13,74312.8,7.49,7.05,6.65,0,*7A
1528456005.16,36781,22.06,74310.8,7.49,7.05,6.75,0,*7A
1528456006.36,36782,22.06,74312.5,7.49,6.75,6.33,0,*7D
1528456007.62,36783,22.06,74312.0,7.49,6.47,6.13,0,*7F
1528456008.85,36784,22.13,74316.8,7.49,6.21,5.77,0,*79
1528456010.11,36785,22.06,74312.8,7.49,6.13,5.77,0,*79
1528456011.35,36786,22.06,74312.3,7.49,6.21,5.85,0,*76
1528456012.57,36787,22.06,74312.3,7.47,6.21,5.77,0,*74
1528456013.8,36788,22.06,74314.0,7.47,6.57,6.25,0,*7E
1528456015.0,36789,22.13,74316.3,7.49,7.05,6.75,0,*72
1528456016.22,36790,22.13,74316.5,7.49,7.01,6.57,0,*7E
1528456017.46,36791,22.13,74312.5,7.49,6.83,6.47,0,*75
1528456018.7,36792,22.06,74312.5,7.49,7.15,6.69,0,*74
1528456019.93,36793,22.06,74314.5,7.49,7.11,6.75,0,*7C
1528456021.14,36794,22.06,74314.5,7.51,6.73,6.29,0,*7E
1528456022.38,36795,22.06,74310.0,7.49,6.47,6.03,0,*79
1528456023.62,36796,22.06,74314.5,7.49,6.47,6.03,0,*7A
1528456024.84,36797,22.06,74312.5,7.49,6.69,6.21,0,*77
1528456026.08,36798,22.06,74314.0,7.49,6.93,6.43,0,*79
1528456027.3,36799,22.06,74312.0,7.49,6.69,6.25,0,*7D
1528456028.5,36800,22.06,74314.3,7.51,7.09,6.69,0,*74
1528456029.73,36801,22.06,74312.8,7.53,7.01,6.53,0,*76
1528456030.96,36802,22.06,74314.3,7.51,6.87,6.51,0,*7A
1528456032.16,36803,22.06,74312.5,7.51,7.19,6.79,0,*77
1528456033.36,36804,22.06,74312.3,7.51,7.27,6.83,0,*78
1528456034.59,36805,22.06,74316.3,7.53,7.33,6.87,0,*7A
1528456035.85,36806,22.06,74314.0,7.53,7.23,6.87,0,*78
1528456037.06,36807,22.06,74316.3,7.53,7.29,6.83,0,*77
1528456038.28,36808,22.06,74314.8,7.53,7.19,6.83,0,*7B
1528456039.49,36809,22.06,74312.3,7.55,7.23,6.75,0,*7C
1528456040.73,36810,22.06,74310.5,7.55,7.23,6.87,0,*79
1528456041.92,36811,22.06,74312.3,7.57,7.37,6.93,0,*7A
1528456043.15,36812,22.06,74312.3,7.57,7.45,6.91,0,*7E
1528456044.36,36813,22.06,74316.0,7.59,7.47,6.97,0,*75
1528456045.55,36814,22.06,74314.5,7.59,7.47,7.05,0,*78
1528456046.76,36815,22.06,74312.5,7.59,7.47,6.97,0,*73
1528456047.93,36816,22.06,74316.8,7.59,7.29,6.83,0,*7D
1528456049.14,36817,22.06,74314.0,7.59,7.37,6.91,0,*70
1528456050.39,36818,22.06,74312.3,7.61,7.47,6.91,0,*73
1528456051.62,36819,22.06,74316.0,7.61,7.05,6.69,0,*73
1528456052.86,36820,22.06,74314.5,7.61,7.15,6.69,0,*78
1528456054.09,36821,22.06,74316.5,7.61,7.09,6.73,0,*7F
1528456055.31,36822,22.06,74312.3,7.61,7.15,6.79,0,*7B
1528456056.51,36823,22.06,74314.3,7.59,6.97,6.57,0,*76
1528456057.69,36824,22.06,74314.3,7.63,7.29,6.83,0,*75
1528456058.86,36825,22.06,74314.8,7.63,7.33,6.93,0,*7E
1528456060.06,36826,22.06,74318.3,7.63,7.23,6.75,0,*74
1528456061.26,36827,22.06,74316.3,7.63,7.19,6.75,0,*7C
1528456062.49,36828,22.06,74314.0,7.63,7.23,6.87,0,*77
1528456063.72,36829,22.06,74314.5,7.65,7.29,6.87,0,*7A
1528456064.92,36830,22.06,74314.3,7.65,7.45,6.93,0,*7D
1528456066.09,36831,22.06,74318.8,7.63,7.45,6.97,0,*7E
1528456067.31,36832,22.06,74314.3,7.65,7.33,6.87,0,*7B
1528456068.54,36833,22.06,74318.3,7.65,7.19,6.75,0,*7F
1528456069.71,36834,22.06,74314.5,7.67,7.05,6.75,0,*77
1528456070.94,36835,22.06,74316.5,7.67,7.27,6.87,0,*7B
1528456072.14,36836,22.06,74312.3,7.67,7.45,6.91,0,*7B
1528456073.31,36837,22.13,74318.8,7.71,7.37,7.05,0,*74
1528456074.51,36838,22.06,74312.8,7.67,7.23,6.75,0,*7F
1528456075.7,36839,22.06,74318.3,7.67,7.05,6.69,0,*77
1528456076.93,36840,22.06,74318.8,7.67,6.91,6.43,0,*7D
1528456078.12,36841,22.06,74316.0,7.71,7.15,6.79,0,*7F
1528456079.33,36842,22.06,74316.3,7.71,7.29,6.91,0,*75
1528456080.52,36843,22.06,74314.8,7.71,7.47,7.01,0,*74
1528456081.72,36844,22.06,74316.0,7.67,7.33,6.91,0,*7F
1528456082.9,36845,22.06,74320.8,7.67,7.29,6.83,0,*76
1528456084.09,36846,22.06,74316.0,7.71,7.19,6.79,0,*74
1528456085.32,36847,22.06,74318.3,7.71,7.27,6.91,0,*7E
1528456086.52,36848,22.06,74316.8,7.71,7.19,6.79,0,*7A
1528456087.71,36849,22.06,74318.8,7.71,7.09,6.61,0,*73
1528456088.91,36850,22.06,74314.3,7.71,7.19,6.83,0,*76
1528456090.11,36851,22.06,74318.0,7.71,7.29,6.91,0,*77
1528456091.33,36852,22.06,74318.5,7.73,7.05,6.69,0,*7F
1528456092.56,36853,22.06,74316.3,7.73,6.93,6.39,0,*75
1528456093.78,36854,22.06,74316.0,7.73,6.83,6.39,0,*73
1528456095.0,36855,22.06,74316.5,7.73,6.69,6.25,0,*7B
1528456096.25,36856,22.06,74316.3,7.73,6.91,6.47,0,*7B
1528456097.45,36857,22.06,74316.5,7.71,7.27,6.83,0,*7C
1528456098.65,36858,22.06,74314.8,7.71,7.27,6.79,0,*76
1528456099.84,36859,22.06,74318.0,7.71,7.05,6.57,0,*7B
1528456101.06,36860,22.06,74318.0,7.73,7.09,6.73,0,*79
1528456102.28,36861,22.06,74316.0,7.73,6.93,6.39,0,*74
1528456103.49,36862,22.06,74314.3,7.75,7.05,6.47,0,*76
1528456104.7,36863,22.06,74314.0,7.73,7.01,6.57,0,*74
1528456105.93,36864,22.06,74316.3,7.73,6.93,6.47,0,*78
1528456107.15,36865,22.06,74314.8,7.73,6.93,6.47,0,*79
1528456108.4,36866,22.06,74318.0,7.73,6.91,6.39,0,*71
1528456109.62,36867,22.06,74316.5,7.73,7.01,6.51,0,*76
1528456110.85,36868,22.06,74314.0,7.73,6.93,6.51,0,*73
1528456112.07,36869,22.06,74314.8,7.73,6.93,6.39,0,*7C
1528456113.27,36870,22.06,74312.5,7.75,7.05,6.61,0,*71
1528456114.44,36871,22.06,74316.0,7.75,7.33,6.93,0,*78
1528456115.63,36872,22.13,74322.0,7.75,7.23,6.83,0,*7B
1528456116.86,36873,22.06,74316.0,7.73,7.37,6.91,0,*7A
1528456118.06,36874,22.06,74316.0,7.77,6.75,6.33,0,*76
1528456119.32,36875,22.06,74318.3,7.73,6.35,5.81,0,*7D
1528456120.55,36876,22.06,74316.8,7.73,6.29,5.77,0,*7A
1528456121.77,36877,22.06,74316.3,7.73,6.21,5.77,0,*73
1528456123.02,36878,22.06,74318.3,7.73,6.57,6.13,0,*7C
1528456124.25,36879,22.06,74314.8,7.73,6.39,5.99,0,*74
1528456125.46,36880,22.06,74318.3,7.67,6.35,5.95,0,*77
1528456126.66,36881,22.06,74316.0,7.67,6.53,6.11,0,*79
1528456127.88,36882,22.06,74318.5,7.73,7.01,6.51,0,*7D
1528456129.08,36883,22.06,74316.0,7.71,6.93,6.39,0,*7A
1528456130.28,36884,22.06,74318.5,7.71,6.93,6.47,0,*74
1528456131.5,36885,22.06,74312.0,7.71,7.15,6.69,0,*76
1528456132.69,36886,22.06,74318.8,7.67,7.09,6.57,0,*72